Tracking 28794 objects as of 20-Apr-2024
HD Live streaming from Space Station
objects crossing your sky now

COSMOS 970 DEB

Track COSMOS 970 DEB now!
10-day predictions


NORAD ID: 10576
Int'l Code: 1977-121T
Perigee: 914.6 km
Apogee: 1,124.9 km
Inclination: 65.8 °
Period: 105.4 minutes
Semi major axis: 7390 km
RCS: 0.1037 m2 (medium)
Launch date: December 21, 1977
Source: Commonwealth of Independent States (former USSR) (CIS)
Launch site: TYURATAM MISSILE AND SPACE COMPLEX (TTMTR)

Note: This is SATELLITE DEBRIS
Your satellite tracking list
Your tracking list is empty




NASA's NSSDC Master Catalog

Two Line Element Set (TLE):
1 10576U 77121T   24110.49893066  .00000379  00000-0  51535-3 0  9991
2 10576  65.8380 309.5553 0142243 209.0469 164.8756 13.66380869307116
Source of the keplerian elements: AFSPC